Location: Clatteringshaws Loch
(55.0508°N, 4.2860°W)
Time: 16:14:32
(UTC+01:00)

Amateur Radio Satellites - All Passes

Search period start: 29 September 2016 15:44
Search period end: 30 September 2016 15:44
Location: Clatteringshaws Loch, 55.0508°N, 4.2860°W

Satellite Date Start Highest point End Downlink Frequencies (MHz)
Time Altitude Azimuth
YUBILEINY 29 Sep 15:45:25 15:53:32 46° 274° (W) 16:01:38 435.215
AIST 1 29 Sep 15:46:27 15:50:22 32° 67° (ENE) 15:54:13
ITUPSAT 1 29 Sep 15:46:59 15:51:43 51° 100° (E) 15:56:24 437.325
MOZHAYETS 4 29 Sep 15:48:31 15:51:07 15° 85° (E) 15:53:43
Cosmos 2491 29 Sep 15:49:03 15:57:53 85° 98° (E) 16:06:47 435.465 / 435.565
DX 1 29 Sep 15:56:18 15:58:19 13° 311° (NW) 16:00:20 434.975-435.025
SWISSCUBE 29 Sep 15:59:13 16:04:02 70° 104° (ESE) 16:08:50 437.505
KKS-1 29 Sep 16:03:26 16:05:08 12° 84° (E) 16:06:51 437.445
BEESAT 29 Sep 16:12:02 16:16:52 81° 105° (ESE) 16:21:40 436.000
O/OREOS (USA 219) 29 Sep 16:12:50 16:17:22 52° 52° (NE) 16:21:52 437.305
GONETS M04 29 Sep 16:13:59 16:17:02 12° 20° (NNE) 16:20:05
TISAT 1 29 Sep 16:21:17 16:24:34 23° 302° (WNW) 16:27:50 437.305
SO-50 29 Sep 16:22:06 16:26:50 59° 130° (SE) 16:31:31 436.795
NOAA 18 29 Sep 16:24:06 16:27:05 15° 43° (NE) 16:30:05 137.9125
HORYU 2 29 Sep 16:27:12 16:31:11 34° 62° (ENE) 16:35:13 437.375
STARS 29 Sep 16:32:54 16:34:28 12° 85° (E) 16:36:01 437.465
ITAMSAT 1 29 Sep 16:37:20 16:41:20 22° 270° (W) 16:45:21 435.822/435.867
HO-68 29 Sep 16:43:39 16:47:00 14° 26° (NNE) 16:50:20 435.675
NOAA 15 29 Sep 16:46:36 16:50:47 24° 53° (NE) 16:54:58 137.62
GOMX 1 29 Sep 16:52:29 16:56:23 22° 56° (ENE) 17:00:09 467.674
Cosmos 2499 29 Sep 16:54:22 16:55:48 11° 31° (NNE) 16:57:14 435.465 / 435.565
DOVE 4 29 Sep 17:07:25 17:09:56 14° 52° (NE) 17:12:22 437.250
CUTE-I 29 Sep 17:07:45 17:12:11 28° 55° (NE) 17:16:38 437.470
Cubesat XI-IV 29 Sep 17:08:07 17:12:33 28° 55° (NE) 17:17:01 437.490
BRITE-PL 29 Sep 17:09:23 17:14:51 51° 67° (ENE) 17:20:06 437.365/2234.400
AO-7 29 Sep 17:09:58 17:17:20 34° 266° (W) 17:24:45 29.400- 29.500
CUBESAT XI-V 29 Sep 17:12:25 17:15:08 15° 85° (E) 17:17:49 437.345
AIST 1 29 Sep 17:24:04 17:28:02 36° 268° (W) 17:31:56
MOZHAYETS 4 29 Sep 17:24:20 17:29:01 84° 104° (ESE) 17:33:41
ITUPSAT 1 29 Sep 17:25:10 17:29:23 31° 301° (WNW) 17:33:36 437.325
Cosmos 2504 29 Sep 17:34:27 17:40:00 24° 282° (WNW) 17:45:46 435.465 / 435.565
SWISSCUBE 29 Sep 17:37:37 17:41:27 24° 304° (NW) 17:45:15 437.505
KKS-1 29 Sep 17:38:05 17:42:33 74° 105° (ESE) 17:46:58 437.445
YUBILEINY 29 Sep 17:45:11 17:47:57 12° 298° (WNW) 17:50:43 435.215
Cosmos 2491 29 Sep 17:48:08 17:55:53 33° 305° (NW) 18:03:42 435.465 / 435.565
BEESAT 29 Sep 17:50:34 17:54:10 21° 306° (NW) 17:57:45 436.000
O/OREOS (USA 219) 29 Sep 17:52:35 17:56:36 30° 253° (WSW) 18:00:34 437.305
CANX-2 29 Sep 17:59:55 18:00:31 10° 48° (NE) 18:01:07 2200.000
NOAA 18 29 Sep 18:01:24 18:06:43 54° 65° (ENE) 18:12:02 137.9125
LilacSat-2 29 Sep 18:02:14 18:05:53 50° 70° (ENE) 18:09:35 437.200
SO-50 29 Sep 18:02:57 18:07:32 43° 332° (NNW) 18:12:03 436.795
HORYU 2 29 Sep 18:03:36 18:07:44 39° 262° (W) 18:11:54 437.375
STARS 29 Sep 18:07:15 18:11:38 73° 104° (ESE) 18:16:00 437.465
CUSAT 1 29 Sep 18:07:28 18:12:31 21° 76° (ENE) 18:18:01 437.405
CINEMA 3 29 Sep 18:07:51 18:09:58 14° 52° (NE) 18:12:02 145.822/145.860
GONETS M04 29 Sep 18:10:30 18:17:57 29° 52° (NE) 18:25:19
NOAA 15 29 Sep 18:24:43 18:30:03 82° 254° (WSW) 18:35:25 137.62
HO-68 29 Sep 18:26:30 18:32:47 35° 51° (NE) 18:39:05 435.675
GOMX 1 29 Sep 18:28:42 18:34:01 84° 255° (WSW) 18:39:02 467.674
DOVE 4 29 Sep 18:42:06 18:46:56 67° 72° (ENE) 18:51:30 437.250
Cosmos 2499 29 Sep 18:45:21 18:51:53 32° 59° (ENE) 18:58:47 435.465 / 435.565
CUTE-I 29 Sep 18:46:35 18:51:53 68° 256° (WSW) 18:57:14 437.470
Cubesat XI-IV 29 Sep 18:46:58 18:52:16 68° 256° (WSW) 18:57:37 437.490
BRITE-PL 29 Sep 18:48:17 18:53:29 36° 266° (W) 18:58:31 437.365/2234.400
CUBESAT XI-V 29 Sep 18:48:31 18:53:16 85° 104° (ESE) 18:57:57 437.345
COMPASS 1 29 Sep 18:58:21 19:00:47 15° 53° (NE) 19:03:12 437.405
MOZHAYETS 4 29 Sep 19:02:21 19:05:40 20° 305° (NW) 19:08:59
CUBEBUG 2 29 Sep 19:04:04 19:06:11 14° 52° (NE) 19:08:17 437.445
KKS-1 29 Sep 19:15:23 19:18:41 21° 304° (NW) 19:21:57 437.445
UWE-3 29 Sep 19:18:43 19:20:42 13° 52° (NE) 19:22:43 435.000/436.395/437.385
SEEDS 29 Sep 19:28:24 19:32:10 32° 63° (ENE) 19:35:58 437.485
CUTE 1.7 + AOD 2 29 Sep 19:29:49 19:33:50 43° 67° (ENE) 19:37:55 437.475
CANX-2 29 Sep 19:31:19 19:35:26 49° 68° (ENE) 19:39:35 2200.000
LilacSat-2 29 Sep 19:37:38 19:40:29 20° 269° (W) 19:43:21 437.200
Oscar 11 29 Sep 19:38:33 19:40:54 15° 52° (NE) 19:43:16 145.826/435.025
CINEMA 3 29 Sep 19:42:06 19:46:28 72° 72° (ENE) 19:50:41 145.822/145.860
NOAA 18 29 Sep 19:42:46 19:47:40 33° 265° (W) 19:52:35 137.9125
ZACube-1 29 Sep 19:43:44 19:46:06 15° 53° (NE) 19:48:29 437.345
STARS 29 Sep 19:44:21 19:47:35 20° 304° (NW) 19:50:47 437.465
SO-50 29 Sep 19:45:02 19:49:02 26° 355° (N) 19:52:58 436.795
AAUSAT CUBESAT 2 29 Sep 19:46:12 19:49:47 28° 62° (ENE) 19:53:24 437.432
CUSAT 1 29 Sep 19:46:19 19:53:12 74° 99° (E) 20:01:11 437.405
RS-15 29 Sep 19:49:30 19:59:52 39° 109° (ESE) 20:10:37 29.354- 29.394
DANDE 29 Sep 19:52:27 19:57:56 40° 87° (E) 20:04:48 436.750
Cosmos 2491 29 Sep 19:52:42 19:56:29 13° 336° (NNW) 20:00:17 435.465 / 435.565
GONETS M04 29 Sep 20:07:20 20:16:15 84° 77° (ENE) 20:25:03
NOAA 15 29 Sep 20:07:22 20:10:41 17° 274° (W) 20:14:02 137.62
GOMX 1 29 Sep 20:09:30 20:12:47 17° 274° (W) 20:15:58 467.674
HO-68 29 Sep 20:12:53 20:20:03 76° 253° (WSW) 20:27:17 435.675
DOVE 4 29 Sep 20:21:19 20:25:03 22° 270° (W) 20:28:38 437.250
AO-85 29 Sep 20:25:59 20:28:09 13° 111° (ESE) 20:30:16 145.980
CUBESAT XI-V 29 Sep 20:26:44 20:30:06 20° 306° (NW) 20:33:27 437.345
CUTE-I 29 Sep 20:30:24 20:32:58 13° 277° (W) 20:35:34 437.470
Cubesat XI-IV 29 Sep 20:30:48 20:33:23 14° 277° (W) 20:36:00 437.490
COMPASS 1 29 Sep 20:31:30 20:35:42 82° 73° (ENE) 20:39:57 437.405
STRAND 1 29 Sep 20:32:20 20:37:23 51° 100° (E) 20:42:25 437.568
FUNcube-1 29 Sep 20:35:03 20:38:47 34° 64° (ENE) 20:42:34 145.935
CUBEBUG 2 29 Sep 20:38:00 20:42:09 76° 74° (ENE) 20:46:19 437.445
Cosmos 2499 29 Sep 20:38:19 20:45:45 77° 263° (W) 20:53:45 435.465 / 435.565
DELFI C3 29 Sep 20:51:31 20:54:47 24° 61° (ENE) 20:58:03 145.870
UWE-3 29 Sep 20:52:21 20:56:29 73° 72° (ENE) 21:00:39 435.000/436.395/437.385
PRISM 29 Sep 21:03:34 21:05:30 13° 86° (E) 21:07:25 437.425
SEEDS 29 Sep 21:03:52 21:07:49 38° 263° (W) 21:11:50 437.485
CUTE 1.7 + AOD 2 29 Sep 21:06:08 21:09:50 29° 266° (W) 21:13:35 437.475
CANX-2 29 Sep 21:08:01 21:11:32 25° 268° (W) 21:15:06 2200.000
Oscar 11 29 Sep 21:12:02 21:16:21 74° 72° (ENE) 21:20:42 145.826/435.025
ZACube-1 29 Sep 21:17:38 21:21:47 84° 74° (ENE) 21:25:59 437.345
AAUSAT CUBESAT 2 29 Sep 21:21:07 21:25:08 44° 262° (W) 21:29:11 437.432
CINEMA 3 29 Sep 21:21:09 21:24:05 17° 271° (W) 21:26:58 145.822/145.860
HUMSAT D 29 Sep 21:22:57 21:26:25 27° 61° (ENE) 21:29:55 437.325/437.525
SO-50 29 Sep 21:26:25 21:30:41 33° 20° (NNE) 21:34:51 436.795
CUSAT 1 29 Sep 21:29:25 21:35:58 37° 303° (WNW) 21:43:17 437.405
DANDE 29 Sep 21:34:35 21:40:31 56° 294° (WNW) 21:48:04 436.750
ISS 29 Sep 21:50:44 21:53:33 27° 158° (SSE) 21:56:22 145.825
Cosmos 2491 29 Sep 21:57:22 21:58:56 10° 11° (NNE) 22:00:29 435.465 / 435.565
RS-15 29 Sep 21:59:16 22:11:10 90° 316° (NW) 22:23:37 29.354- 29.394
AO-85 29 Sep 22:02:50 22:07:49 57° 130° (SE) 22:12:26 145.980
HO-68 29 Sep 22:03:59 22:09:02 20° 275° (W) 22:14:05 435.675
GONETS M04 29 Sep 22:04:55 22:12:10 30° 282° (WNW) 22:19:22
COMPASS 1 29 Sep 22:09:22 22:11:51 15° 273° (W) 22:14:21 437.405
FUNcube-1 29 Sep 22:11:16 22:15:03 34° 264° (W) 22:18:54 145.935
STRAND 1 29 Sep 22:11:50 22:16:26 34° 301° (WNW) 22:21:01 437.568
CUBEBUG 2 29 Sep 22:16:47 22:19:21 16° 273° (W) 22:21:54 437.445
CUBEBUG 1 29 Sep 22:24:07 22:27:05 18° 54° (NE) 22:30:03 437.445
VELOX 1 29 Sep 22:25:09 22:27:51 16° 52° (NE) 22:30:33 145.980
DELFI C3 29 Sep 22:25:29 22:29:23 50° 260° (W) 22:33:21 145.870
M-CUBED/EXP-1 PRIME 29 Sep 22:25:54 22:28:10 15° 50° (NE) 22:30:22 437.505
UWE-3 29 Sep 22:30:50 22:33:29 16° 272° (W) 22:36:10 435.000/436.395/437.385
ESTCUBE 1 29 Sep 22:32:20 22:36:12 28° 60° (ENE) 22:40:06 437.505/2401.250
Cosmos 2499 29 Sep 22:32:38 22:37:47 20° 284° (WNW) 22:43:10 435.465 / 435.565
ANTELSAT 29 Sep 22:36:48 22:39:57 19° 89° (E) 22:43:07 437.575/2403.000
PRISM 29 Sep 22:37:17 22:41:29 86° 108° (ESE) 22:45:37 437.425
Oscar 11 29 Sep 22:50:06 22:53:01 17° 272° (W) 22:55:56 145.826/435.025
SPROUT 29 Sep 22:56:21 22:59:02 16° 54° (NE) 23:01:42 437.525
ZACube-1 29 Sep 22:56:25 22:58:43 14° 274° (W) 23:01:00 437.345
TIGRISAT 29 Sep 22:56:28 23:00:09 26° 93° (E) 23:03:53 435.000
HUMSAT D 29 Sep 22:57:55 23:01:52 46° 261° (W) 23:05:54 437.325/437.525
SO-50 29 Sep 23:07:01 23:11:43 88° 43° (NE) 23:16:16 436.795
UKube-1 29 Sep 23:13:38 23:16:54 21° 56° (ENE) 23:20:10 .
AISAT 29 Sep 23:16:13 23:20:19 37° 63° (ENE) 23:24:25 437.250
CUSAT 1 29 Sep 23:16:30 23:20:38 15° 329° (NNW) 23:24:54 437.405
AUBIESAT-1 29 Sep 23:19:46 23:23:13 33° 59° (ENE) 23:26:29 437.475
DANDE 29 Sep 23:20:39 23:25:21 19° 321° (NW) 23:30:40 436.750
50 SAT 29 Sep 23:21:20 23:24:36 32° 65° (ENE) 23:27:55 437.505
ISS 29 Sep 23:26:30 23:29:39 46° 177° (S) 23:32:49 145.825
UNISAT 6 29 Sep 23:37:23 23:41:44 60° 102° (ESE) 23:46:10 437.425
AO-85 29 Sep 23:43:44 23:48:28 43° 330° (NNW) 23:52:51 145.980
DX 1 29 Sep 23:44:52 23:49:01 43° 65° (ENE) 23:53:10 434.975-435.025
QB50P2 29 Sep 23:47:01 23:49:30 15° 87° (E) 23:52:00 145.880/145.840
POLYITAN 1 29 Sep 23:49:12 23:51:41 15° 87° (E) 23:54:11 437.675
Cosmos 2491 29 Sep 23:53:44 00:00:25 23° 45° (NE) 00:07:04 435.465 / 435.565
M-CUBED/EXP-1 PRIME 29 Sep 23:58:22 00:02:19 89° 248° (WSW) 00:05:59 437.505
CUBEBUG 1 29 Sep 23:58:25 00:02:51 87° 258° (WSW) 00:07:16 437.445
VELOX 1 29 Sep 23:59:12 00:03:40 80° 72° (ENE) 00:08:08 145.980
ESTCUBE 1 30 Sep 00:08:23 00:12:49 51° 260° (W) 00:17:18 437.505/2401.250
TISAT 1 30 Sep 00:09:20 00:12:17 19° 56° (NE) 00:15:14 437.305
ANTELSAT 30 Sep 00:12:45 00:17:08 71° 289° (WNW) 00:21:36 437.575/2403.000
RS-15 30 Sep 00:13:11 00:25:05 57° 347° (NNW) 00:37:18 29.354- 29.394
PRISM 30 Sep 00:13:35 00:16:15 17° 306° (NW) 00:18:54 437.425
BUGSAT 1 30 Sep 00:19:40 00:20:54 11° 85° (E) 00:22:07 437.445
JAS-2 30 Sep 00:20:14 00:27:23 36° 90° (E) 00:34:16 435.910
DUCHIFAT 1 30 Sep 00:23:38 00:27:10 26° 93° (E) 00:30:43 145.980
QB50P1 30 Sep 00:27:48 00:31:36 31° 95° (E) 00:35:23 145.935-145.965
SPROUT 30 Sep 00:30:08 00:34:24 89° 80° (E) 00:38:42 437.525
TIGRISAT 30 Sep 00:32:51 00:37:06 50° 292° (WNW) 00:41:24 435.000
POPSAT HIP 1 30 Sep 00:41:26 00:45:25 40° 98° (E) 00:49:25 437.405
UKube-1 30 Sep 00:48:14 00:52:33 69° 255° (WSW) 00:56:54 .
SO-50 30 Sep 00:48:14 00:51:38 21° 244° (WSW) 00:54:58 436.795
AISAT 30 Sep 00:52:43 00:56:49 36° 263° (W) 01:00:57 437.250
AUBIESAT-1 30 Sep 00:54:15 00:57:44 31° 256° (WSW) 01:01:01 437.475
50 SAT 30 Sep 00:54:52 00:58:07 30° 264° (W) 01:01:24 437.505
BEESAT 3 30 Sep 00:55:37 00:58:24 19° 117° (ESE) 01:01:13 437.485
NANOSAT C BR1 30 Sep 00:56:17 01:00:26 53° 101° (E) 01:04:33 145.865
ISS 30 Sep 01:02:48 01:05:48 33° 197° (SSW) 01:08:48 145.825
YUBILEINY 30 Sep 01:08:28 01:11:57 13° 63° (ENE) 01:15:26 435.215
UNISAT 6 30 Sep 01:14:40 01:18:11 24° 301° (WNW) 01:21:44 437.425
DX 1 30 Sep 01:21:29 01:25:21 30° 265° (W) 01:29:14 434.975-435.025
QB50P2 30 Sep 01:21:39 01:25:54 82° 288° (WNW) 01:30:08 145.880/145.840
POLYITAN 1 30 Sep 01:23:50 01:28:05 82° 285° (WNW) 01:32:19 437.675
ITUPSAT 1 30 Sep 01:24:08 01:28:01 25° 56° (ENE) 01:31:55 437.325
AO-85 30 Sep 01:26:00 01:29:54 24° 353° (N) 01:33:33 145.980
SWISSCUBE 30 Sep 01:35:38 01:39:52 32° 60° (ENE) 01:44:07 437.505
M-CUBED/EXP-1 PRIME 30 Sep 01:35:41 01:37:19 12° 264° (W) 01:38:55 437.505
CUBEBUG 1 30 Sep 01:37:27 01:39:49 14° 274° (W) 01:42:11 437.445
VELOX 1 30 Sep 01:37:48 01:40:42 17° 272° (W) 01:43:38 145.980
Gurwin Techsat 1B 30 Sep 01:41:13 01:42:19 11° 80° (E) 01:43:26 435.225
TISAT 1 30 Sep 01:43:18 01:47:29 75° 256° (WSW) 01:51:42 437.305
BEESAT 30 Sep 01:48:13 01:52:35 37° 62° (ENE) 01:56:58 436.000
Cosmos 2491 30 Sep 01:50:31 01:59:22 65° 72° (ENE) 02:08:08 435.465 / 435.565
ANTELSAT 30 Sep 01:50:51 01:53:10 14° 309° (NW) 01:55:30 437.575/2403.000
BUGSAT 1 30 Sep 01:52:57 01:57:00 79° 105° (ESE) 02:01:02 437.445
BEESAT 2 30 Sep 01:54:20 01:57:54 32° 123° (ESE) 02:01:29 435.950
DUCHIFAT 1 30 Sep 01:59:03 02:03:05 46° 293° (WNW) 02:07:05 145.980
QB50P1 30 Sep 02:03:33 02:07:28 38° 295° (WNW) 02:11:23 145.935-145.965
Oscar 19 30 Sep 02:04:19 02:08:46 28° 93° (E) 02:13:11 437.125/150
JAS-2 30 Sep 02:05:06 02:12:59 74° 292° (WNW) 02:20:37 435.910
SPROUT 30 Sep 02:08:40 02:10:59 14° 274° (W) 02:13:19 437.525
TIGRISAT 30 Sep 02:11:50 02:12:53 11° 312° (NW) 02:13:57 435.000
POPSAT HIP 1 30 Sep 02:17:26 02:21:08 30° 298° (WNW) 02:24:50 437.405
RS-15 30 Sep 02:27:51 02:40:01 60° 19° (NNE) 02:52:15 29.354- 29.394
UKube-1 30 Sep 02:28:20 02:29:27 11° 276° (W) 02:30:34 .
BEESAT 3 30 Sep 02:31:40 02:35:36 81° 315° (NW) 02:39:36 437.485
NANOSAT C BR1 30 Sep 02:32:30 02:35:55 24° 300° (WNW) 02:39:19 145.865
Cosmos 2504 30 Sep 02:38:51 02:42:24 14° 70° (ENE) 02:45:54 435.465 / 435.565
ISS 30 Sep 02:40:10 02:41:37 12° 216° (SW) 02:43:03 145.825
CUSAT 1 30 Sep 02:49:40 02:52:56 13° 25° (NNE) 02:56:07 437.405
MOZHAYETS 4 30 Sep 02:56:40 03:00:42 31° 61° (ENE) 03:04:46
DANDE 30 Sep 02:57:20 02:59:01 11° 17° (NNE) 03:00:43 436.750
YUBILEINY 30 Sep 02:58:13 03:06:29 49° 88° (E) 03:14:45 435.215
QB50P2 30 Sep 02:58:38 03:01:06 15° 307° (NW) 03:03:33 145.880/145.840
ITUPSAT 1 30 Sep 03:00:46 03:05:30 65° 257° (WSW) 03:10:18 437.325
POLYITAN 1 30 Sep 03:00:49 03:03:17 15° 307° (NW) 03:05:44 437.675
ITAMSAT 1 30 Sep 03:02:44 03:05:49 16° 85° (E) 03:08:54 435.822/435.867
KKS-1 30 Sep 03:07:16 03:11:02 28° 60° (ENE) 03:14:49 437.445
AO-85 30 Sep 03:07:33 03:11:32 29° 18° (NNE) 03:15:16 145.980
AO-7 30 Sep 03:10:29 03:14:58 15° 80° (E) 03:19:26 29.400- 29.500
SWISSCUBE 30 Sep 03:12:56 03:17:33 47° 261° (W) 03:22:12 437.505
Gurwin Techsat 1B 30 Sep 03:18:15 03:23:30 55° 101° (E) 03:28:44 435.225
TISAT 1 30 Sep 03:22:37 03:23:54 11° 275° (W) 03:25:12 437.305
BEESAT 30 Sep 03:25:51 03:30:21 41° 262° (W) 03:34:54 436.000
BUGSAT 1 30 Sep 03:29:17 03:31:55 17° 305° (NW) 03:34:33 437.445
BEESAT 2 30 Sep 03:31:42 03:35:35 52° 324° (NW) 03:39:32 435.950
STARS 30 Sep 03:35:15 03:38:54 27° 59° (ENE) 03:42:34 437.465
Oscar 19 30 Sep 03:43:22 03:48:27 58° 293° (WNW) 03:53:29 437.125/150
Cosmos 2491 30 Sep 03:47:50 03:55:52 41° 276° (W) 04:03:51 435.465 / 435.565
JAS-2 30 Sep 03:50:42 03:56:54 27° 314° (NW) 04:03:02 435.910
BEESAT 3 30 Sep 04:10:24 04:13:48 26° 340° (NNW) 04:17:13 437.485
CUBESAT XI-V 30 Sep 04:21:57 04:26:08 32° 62° (ENE) 04:30:20 437.345
AIST 1 30 Sep 04:25:18 04:27:24 13° 81° (E) 04:29:30
Cosmos 2504 30 Sep 04:27:08 04:34:14 61° 94° (E) 04:41:17 435.465 / 435.565
CUSAT 1 30 Sep 04:31:08 04:37:57 30° 51° (NE) 04:44:06 437.405
MOZHAYETS 4 30 Sep 04:33:20 04:37:45 46° 261° (W) 04:42:13
AIST 2 30 Sep 04:34:22 04:38:21 49° 128° (SE) 04:42:24 435.215
DANDE 30 Sep 04:39:06 04:45:20 23° 44° (NE) 04:51:35 436.750
ITAMSAT 1 30 Sep 04:40:54 04:46:10 79° 106° (ESE) 04:51:24 435.822/435.867
RS-15 30 Sep 04:41:10 04:53:33 81° 229° (SW) 05:05:48 29.354- 29.394
ITUPSAT 1 30 Sep 04:42:43 04:44:20 12° 277° (W) 04:45:57 437.325
KKS-1 30 Sep 04:43:04 04:47:24 51° 259° (W) 04:51:46 437.445
PCSat 30 Sep 04:44:53 04:49:50 37° 117° (ESE) 04:54:49 145.827
AO-85 30 Sep 04:48:11 04:52:36 80° 43° (NE) 04:56:39 145.980
YUBILEINY 30 Sep 04:54:45 05:03:19 54° 292° (WNW) 05:11:53 435.215
Gurwin Techsat 1B 30 Sep 04:58:34 05:03:17 33° 301° (WNW) 05:07:58 435.225
AO-7 30 Sep 05:01:33 05:09:45 57° 103° (ESE) 05:17:53 29.400- 29.500
STARS 30 Sep 05:10:46 05:15:03 52° 259° (W) 05:19:21 437.465
BEESAT 2 30 Sep 05:10:59 05:14:11 23° 347° (NNW) 05:17:26 435.950
Oscar 19 30 Sep 05:24:01 05:26:49 15° 314° (NW) 05:29:36 437.125/150
JAS-2 30 Sep 05:36:58 05:39:27 12° 338° (NNW) 05:41:57 435.910
HORYU 2 30 Sep 05:47:08 05:50:48 24° 93° (E) 05:54:28 437.375
Cosmos 2491 30 Sep 05:49:25 05:50:02 10° 301° (WNW) 05:50:40 435.465 / 435.565
BEESAT 3 30 Sep 05:49:34 05:52:34 20° 3° (N) 05:55:35 437.485
CUBESAT XI-V 30 Sep 05:58:53 06:03:25 46° 262° (W) 06:07:59 437.345
AIST 1 30 Sep 05:59:55 06:04:19 86° 97° (E) 06:08:42
AIST 2 30 Sep 06:13:01 06:16:58 40° 330° (NNW) 06:20:57 435.215
CUSAT 1 30 Sep 06:13:08 06:21:09 88° 76° (ENE) 06:28:00 437.405
STRAND 1 30 Sep 06:17:16 06:21:41 30° 58° (ENE) 06:26:08 437.568
NOAA 18 30 Sep 06:17:50 06:19:59 12° 82° (E) 06:22:08 137.9125
ITAMSAT 1 30 Sep 06:21:02 06:25:10 24° 306° (NW) 06:29:18 435.822/435.867
Cosmos 2504 30 Sep 06:21:27 06:28:04 37° 298° (WNW) 06:34:40 435.465 / 435.565
DANDE 30 Sep 06:21:41 06:29:56 60° 68° (ENE) 06:37:56 436.750
GOMX 1 30 Sep 06:24:35 06:27:27 17° 86° (E) 06:30:12 467.674
PCSat 30 Sep 06:27:43 06:33:05 59° 319° (NW) 06:38:29 145.827
AO-85 30 Sep 06:29:23 06:32:29 20° 244° (WSW) 06:35:26 145.980
NOAA 15 30 Sep 06:33:02 06:37:13 23° 90° (E) 06:41:20 137.62
O/OREOS (USA 219) 30 Sep 06:34:42 06:36:59 14° 98° (E) 06:39:16 437.305
BRITE-PL 30 Sep 06:45:42 06:50:33 52° 99° (E) 06:54:59 437.365/2234.400
BEESAT 2 30 Sep 06:49:59 06:53:11 22° 11° (N) 06:56:22 435.950
RS-15 30 Sep 06:54:15 07:04:25 32° 256° (WSW) 07:14:29 29.354- 29.394
AO-7 30 Sep 06:54:37 07:02:31 50° 306° (NW) 07:10:24 29.400- 29.500
CUTE-I 30 Sep 06:56:24 07:01:02 29° 93° (E) 07:05:40 437.470
YUBILEINY 30 Sep 06:56:41 07:02:36 19° 320° (NW) 07:08:31 435.215
Cubesat XI-IV 30 Sep 06:56:58 07:01:37 29° 93° (E) 07:06:14 437.490
LilacSat-2 30 Sep 07:02:43 07:06:06 28° 95° (E) 07:09:28 437.200
HORYU 2 30 Sep 07:23:18 07:27:40 55° 292° (WNW) 07:32:01 437.375
GONETS M04 30 Sep 07:23:52 07:30:05 22° 72° (ENE) 07:36:17
BEESAT 3 30 Sep 07:27:35 07:31:14 33° 27° (NNE) 07:34:53 437.485
HO-68 30 Sep 07:34:02 07:38:03 15° 81° (E) 07:42:02 435.675
Cosmos 2499 30 Sep 07:34:41 07:38:47 17° 72° (ENE) 07:42:55 435.465 / 435.565
AIST 1 30 Sep 07:39:46 07:42:34 16° 302° (WNW) 07:45:22
AIST 2 30 Sep 07:53:05 07:56:24 22° 353° (N) 07:59:43 435.215
STRAND 1 30 Sep 07:55:37 08:00:38 58° 259° (WSW) 08:05:43 437.568
CUSAT 1 30 Sep 07:55:57 08:02:15 28° 280° (W) 08:07:52 437.405
NOAA 18 30 Sep 07:56:22 08:01:49 61° 103° (ESE) 08:07:14 137.9125
PRISM 30 Sep 07:58:53 08:02:21 26° 60° (ENE) 08:05:49 437.425
GOMX 1 30 Sep 08:01:42 08:06:13 77° 288° (WNW) 08:10:28 467.674
DANDE 30 Sep 08:04:48 08:12:41 48° 270° (W) 08:20:16 436.750
O/OREOS (USA 219) 30 Sep 08:11:02 08:15:37 78° 117° (ESE) 08:20:15 437.305
DOVE 4 30 Sep 08:11:23 08:15:38 64° 102° (ESE) 08:19:44 437.250
NOAA 15 30 Sep 08:12:14 08:17:34 75° 290° (WNW) 08:22:51 137.62
PCSat 30 Sep 08:12:56 08:17:32 27° 343° (NNW) 08:22:08 145.827
Cosmos 2504 30 Sep 08:21:45 08:24:08 12° 326° (NW) 08:26:31 435.465 / 435.565
BRITE-PL 30 Sep 08:24:32 08:28:49 30° 301° (WNW) 08:32:48 437.365/2234.400
BEESAT 2 30 Sep 08:27:55 08:31:50 47° 34° (NNE) 08:35:44 435.950
TIGRISAT 30 Sep 08:29:24 08:30:13 10° 47° (NE) 08:31:01 435.000
CUTE-I 30 Sep 08:36:11 08:41:28 60° 293° (WNW) 08:46:44 437.470
Cubesat XI-IV 30 Sep 08:36:47 08:42:04 60° 293° (WNW) 08:47:20 437.490
LilacSat-2 30 Sep 08:36:56 08:40:28 36° 294° (WNW) 08:44:00 437.200
SEEDS 30 Sep 08:40:31 08:43:58 23° 91° (E) 08:47:23 437.485
CUTE 1.7 + AOD 2 30 Sep 08:43:09 08:47:02 32° 95° (E) 08:50:55 437.475
CANX-2 30 Sep 08:44:49 08:48:51 37° 96° (E) 08:52:51 2200.000
AO-7 30 Sep 08:47:49 08:53:35 22° 331° (NNW) 08:59:23 29.400- 29.500
AAUSAT CUBESAT 2 30 Sep 08:56:31 08:59:36 19° 89° (E) 09:02:39 437.432
JAS-2 30 Sep 08:59:27 09:03:08 15° 29° (NNE) 09:06:55 435.910
ZACube-1 30 Sep 09:00:48 09:01:46 11° 83° (E) 09:02:44 437.345
HORYU 2 30 Sep 09:01:39 09:03:20 12° 313° (NW) 09:05:02 437.375
BEESAT 3 30 Sep 09:05:13 09:09:11 65° 228° (SW) 09:13:08 437.485
CINEMA 3 30 Sep 09:06:14 09:10:24 65° 103° (ESE) 09:14:36 145.822/145.860
UNISAT 6 30 Sep 09:07:57 09:11:07 21° 57° (ENE) 09:14:19 437.425
GONETS M04 30 Sep 09:16:37 09:25:26 74° 96° (E) 09:34:17
HO-68 30 Sep 09:20:13 09:27:20 62° 103° (ESE) 09:34:24 435.675
Cosmos 2499 30 Sep 09:23:32 09:30:32 70° 96° (E) 09:37:38 435.465 / 435.565
AIST 2 30 Sep 09:32:30 09:36:03 26° 17° (NNE) 09:39:37 435.215
PRISM 30 Sep 09:33:22 09:37:27 50° 259° (W) 09:41:33 437.425
NOAA 18 30 Sep 09:37:27 09:42:13 32° 304° (NW) 09:47:00 137.9125
STRAND 1 30 Sep 09:39:46 09:40:58 11° 279° (W) 09:42:11 437.568
GOMX 1 30 Sep 09:41:02 09:43:35 15° 309° (NW) 09:46:02 467.674
ANTELSAT 30 Sep 09:42:17 09:46:12 37° 64° (ENE) 09:50:09 437.575/2403.000
COMPASS 1 30 Sep 09:42:34 09:46:47 58° 101° (E) 09:50:57 437.405
DANDE 30 Sep 09:49:47 09:53:35 14° 291° (WNW) 09:57:21 436.750
DOVE 4 30 Sep 09:49:49 09:52:58 21° 303° (WNW) 09:56:04 437.250
FUNcube-1 30 Sep 09:51:26 09:55:09 27° 93° (E) 09:58:55 145.935
O/OREOS (USA 219) 30 Sep 09:51:43 09:55:33 25° 321° (NW) 09:59:25 437.305
NOAA 15 30 Sep 09:52:58 09:56:35 19° 311° (NW) 10:00:10 137.62
QB50P1 30 Sep 09:54:25 09:55:55 12° 49° (NE) 09:57:24 145.935-145.965
DELFI C3 30 Sep 09:56:48 09:59:02 14° 87° (E) 10:01:14 145.870
CUBEBUG 2 30 Sep 09:57:41 10:01:56 64° 102° (ESE) 10:06:17 437.445
PCSat 30 Sep 09:58:09 10:02:34 24° 9° (N) 10:06:59 145.827
TIGRISAT 30 Sep 10:01:52 10:05:59 51° 68° (ENE) 10:10:08 435.000
BEESAT 2 30 Sep 10:05:53 10:09:37 38° 235° (SW) 10:13:21 435.950
POPSAT HIP 1 30 Sep 10:07:17 10:09:32 14° 52° (NE) 10:11:47 437.405
UWE-3 30 Sep 10:10:41 10:14:57 60° 102° (ESE) 10:19:19 435.000/436.395/437.385
SEEDS 30 Sep 10:15:46 10:19:58 53° 291° (WNW) 10:24:07 437.485
CUTE-I 30 Sep 10:17:27 10:20:34 16° 314° (NW) 10:23:40 437.470
Cubesat XI-IV 30 Sep 10:18:06 10:21:12 16° 314° (NW) 10:24:18 437.490
CUTE 1.7 + AOD 2 30 Sep 10:18:57 10:22:58 39° 294° (WNW) 10:26:58 437.475
CANX-2 30 Sep 10:20:47 10:24:41 34° 296° (WNW) 10:28:35 2200.000
NANOSAT C BR1 30 Sep 10:21:13 10:23:59 17° 55° (NE) 10:26:46 145.865
Oscar 11 30 Sep 10:28:01 10:32:21 57° 101° (E) 10:36:39 145.826/435.025
AAUSAT CUBESAT 2 30 Sep 10:31:19 10:35:30 63° 289° (WNW) 10:39:38 437.432
HUMSAT D 30 Sep 10:34:22 10:37:25 19° 89° (E) 10:40:28 437.325/437.525
ZACube-1 30 Sep 10:34:35 10:38:53 68° 103° (ESE) 10:43:17 437.345
AO-7 30 Sep 10:39:31 10:43:30 15° 359° (N) 10:47:29 29.400- 29.500
JAS-2 30 Sep 10:39:47 10:46:04 36° 53° (NE) 10:52:52 435.910
UNISAT 6 30 Sep 10:43:14 10:47:28 67° 257° (WSW) 10:51:45 437.425
CINEMA 3 30 Sep 10:44:07 10:47:12 20° 302° (WNW) 10:50:19 145.822/145.860
BEESAT 3 30 Sep 10:44:38 10:46:06 12° 248° (WSW) 10:47:34 437.485
QB50P2 30 Sep 10:45:57 10:49:33 29° 62° (ENE) 10:53:12 145.880/145.840
POLYITAN 1 30 Sep 10:48:08 10:51:44 29° 62° (ENE) 10:55:22 437.675
YUBILEINY 30 Sep 11:02:12 11:06:34 14° 29° (NNE) 11:10:56 435.215
HO-68 30 Sep 11:08:17 11:14:52 41° 305° (NW) 11:21:26 435.675
AIST 2 30 Sep 11:11:00 11:15:12 67° 39° (NE) 11:19:23 435.215
GONETS M04 30 Sep 11:15:02 11:23:06 38° 301° (WNW) 11:31:14
BUGSAT 1 30 Sep 11:15:10 11:18:18 22° 59° (ENE) 11:21:27 437.445
Cosmos 2499 30 Sep 11:18:05 11:24:19 32° 301° (WNW) 11:30:40 435.465 / 435.565
COMPASS 1 30 Sep 11:18:42 11:22:02 23° 301° (WNW) 11:25:21 437.405
ANTELSAT 30 Sep 11:19:07 11:22:59 33° 264° (W) 11:26:53 437.575/2403.000
DUCHIFAT 1 30 Sep 11:21:57 11:25:58 48° 68° (ENE) 11:30:00 145.980
QB50P1 30 Sep 11:26:45 11:30:53 59° 70° (ENE) 11:35:02 145.935-145.965
FUNcube-1 30 Sep 11:27:27 11:31:35 46° 292° (WNW) 11:35:47 145.935
DELFI C3 30 Sep 11:30:22 11:34:26 82° 285° (WNW) 11:38:27 145.870
CUBEBUG 2 30 Sep 11:35:00 11:38:15 22° 301° (WNW) 11:41:32 437.445
O/OREOS (USA 219) 30 Sep 11:35:15 11:36:39 11° 346° (NNW) 11:38:02 437.305
TIGRISAT 30 Sep 11:39:31 11:42:59 24° 268° (W) 11:46:28 435.000
POPSAT HIP 1 30 Sep 11:40:28 11:44:40 77° 72° (ENE) 11:48:53 437.405
CUBEBUG 1 30 Sep 11:41:57 11:43:13 11° 83° (E) 11:44:29 437.445
PCSat 30 Sep 11:42:03 11:47:16 44° 34° (NE) 11:52:28 145.827
UWE-3 30 Sep 11:47:45 11:51:08 23° 301° (WNW) 11:54:35 435.000/436.395/437.385
Oscar 19 30 Sep 11:50:58 11:54:34 19° 50° (NE) 11:58:11 437.125/150
SEEDS 30 Sep 11:53:36 11:54:47 11° 311° (NW) 11:55:57 437.485
ESTCUBE 1 30 Sep 11:53:58 11:57:29 21° 90° (E) 12:00:58 437.505/2401.250
NANOSAT C BR1 30 Sep 11:55:01 11:59:13 83° 255° (WSW) 12:03:27 145.865
Oscar 11 30 Sep 12:04:40 12:08:13 24° 301° (WNW) 12:11:44 145.826/435.025
AAUSAT CUBESAT 2 30 Sep 12:08:29 12:10:12 12° 309° (NW) 12:11:55 437.432
HUMSAT D 30 Sep 12:09:14 12:13:29 67° 288° (WNW) 12:17:43 437.325/437.525
ZACube-1 30 Sep 12:11:34 12:14:49 21° 302° (WNW) 12:18:07 437.345
50 SAT 30 Sep 12:15:54 12:18:02 15° 89° (E) 12:20:10 437.505
Cosmos 2504 30 Sep 12:17:48 12:20:25 12° 34° (NE) 12:23:04 435.465 / 435.565
QB50P2 30 Sep 12:21:13 12:25:15 44° 261° (W) 12:29:18 145.880/145.840
POLYITAN 1 30 Sep 12:23:25 12:27:26 43° 262° (W) 12:31:28 437.675
JAS-2 30 Sep 12:23:41 12:30:33 75° 257° (WSW) 12:38:15 435.910
UNISAT 6 30 Sep 12:24:39 12:25:05 10° 277° (W) 12:25:31 437.425
AO-7 30 Sep 12:27:47 12:33:19 20° 26° (NNE) 12:38:50 29.400- 29.500
UKube-1 30 Sep 12:29:41 12:31:35 13° 86° (E) 12:33:27 .
AISAT 30 Sep 12:35:24 12:39:09 27° 93° (E) 12:42:52 437.250
BUGSAT 1 30 Sep 12:49:22 12:53:24 57° 259° (WSW) 12:57:25 437.445
AIST 2 30 Sep 12:49:54 12:53:23 26° 240° (WSW) 12:56:52 435.215
ITAMSAT 1 30 Sep 12:51:30 12:53:41 13° 42° (NE) 12:55:53 435.822/435.867
HO-68 30 Sep 12:56:55 13:00:53 16° 329° (NNW) 13:04:51 435.675
DUCHIFAT 1 30 Sep 12:58:27 13:01:54 25° 267° (W) 13:05:23 145.980
YUBILEINY 30 Sep 12:58:41 13:06:43 38° 59° (ENE) 13:14:40 435.215
DX 1 30 Sep 13:01:56 13:05:45 29° 95° (E) 13:09:31 434.975-435.025
QB50P1 30 Sep 13:03:51 13:07:01 21° 269° (W) 13:10:13 145.935-145.965
M-CUBED/EXP-1 PRIME 30 Sep 13:05:41 13:07:48 16° 98° (E) 13:09:53 437.505
DELFI C3 30 Sep 13:06:29 13:08:39 14° 306° (NW) 13:10:49 145.870
Gurwin Techsat 1B 30 Sep 13:07:32 13:12:19 35° 60° (ENE) 13:17:07 435.225
Cosmos 2491 30 Sep 13:09:31 13:14:08 16° 66° (ENE) 13:18:46 435.465 / 435.565
CUBEBUG 1 30 Sep 13:15:59 13:20:22 71° 104° (ESE) 13:24:40 437.445
O/OREOS (USA 219) 30 Sep 13:17:13 13:18:17 11° 12° (NNE) 13:19:21 437.305
POPSAT HIP 1 30 Sep 13:18:20 13:20:59 16° 272° (W) 13:23:39 437.405
VELOX 1 30 Sep 13:18:27 13:22:51 59° 102° (ESE) 13:27:11 145.980
GONETS M04 30 Sep 13:18:54 13:23:22 14° 331° (NNW) 13:27:50
Cosmos 2499 30 Sep 13:19:14 13:20:24 10° 330° (NNW) 13:21:34 435.465 / 435.565
TISAT 1 30 Sep 13:22:10 13:23:13 11° 84° (E) 13:24:17 437.305
PCSat 30 Sep 13:25:34 13:30:54 57° 237° (WSW) 13:36:12 145.827
Oscar 19 30 Sep 13:28:01 13:33:13 80° 71° (ENE) 13:38:26 437.125/150
ESTCUBE 1 30 Sep 13:30:12 13:34:43 64° 290° (WNW) 13:39:12 437.505/2401.250
NANOSAT C BR1 30 Sep 13:33:51 13:35:40 12° 275° (W) 13:37:28 145.865
SPROUT 30 Sep 13:44:37 13:48:52 64° 101° (ESE) 13:53:06 437.525
HUMSAT D 30 Sep 13:46:23 13:48:21 13° 309° (NW) 13:50:21 437.325/437.525
50 SAT 30 Sep 13:48:17 13:51:58 68° 289° (WNW) 13:55:37 437.505
AUBIESAT-1 30 Sep 13:59:37 14:02:51 47° 107° (ESE) 14:06:04 437.475
UKube-1 30 Sep 14:04:01 14:08:23 80° 107° (ESE) 14:12:41 .
Cosmos 2504 30 Sep 14:09:43 14:16:28 37° 62° (ENE) 14:23:33 435.465 / 435.565
AISAT 30 Sep 14:11:36 14:15:52 48° 293° (WNW) 14:20:05 437.250
JAS-2 30 Sep 14:12:02 14:17:01 20° 280° (W) 14:22:21 435.910
AO-7 30 Sep 14:16:30 14:24:14 45° 51° (NE) 14:31:58 29.400- 29.500
ITAMSAT 1 30 Sep 14:27:06 14:32:02 47° 64° (ENE) 14:37:01 435.822/435.867
DX 1 30 Sep 14:37:57 14:42:06 44° 294° (WNW) 14:46:13 434.975-435.025
M-CUBED/EXP-1 PRIME 30 Sep 14:39:27 14:42:41 51° 297° (WNW) 14:45:52 437.505
Gurwin Techsat 1B 30 Sep 14:46:58 14:52:09 51° 260° (W) 14:57:21 435.225
CUBEBUG 1 30 Sep 14:53:00 14:56:14 21° 304° (NW) 14:59:27 437.445
ITUPSAT 1 30 Sep 14:54:29 14:58:03 20° 89° (E) 15:01:37 437.325
VELOX 1 30 Sep 14:55:27 14:59:01 24° 302° (WNW) 15:02:34 145.980
TISAT 1 30 Sep 14:55:29 14:59:40 72° 104° (ESE) 15:03:50 437.305
YUBILEINY 30 Sep 14:55:37 15:04:18 72° 265° (W) 15:12:55 435.215
O/OREOS (USA 219) 30 Sep 14:55:47 14:59:27 23° 37° (NE) 15:03:08 437.305
Cosmos 2491 30 Sep 15:00:27 15:08:57 56° 90° (E) 15:17:31 435.465 / 435.565
SWISSCUBE 30 Sep 15:05:48 15:09:54 27° 93° (E) 15:13:58 437.505
SO-50 30 Sep 15:08:17 15:12:10 25° 118° (ESE) 15:16:02 436.795
ESTCUBE 1 30 Sep 15:08:26 15:10:43 14° 311° (NW) 15:13:00 437.505/2401.250
Oscar 19 30 Sep 15:09:20 15:13:10 21° 272° (W) 15:17:02 437.125/150
PCSat 30 Sep 15:11:02 15:13:12 12° 257° (WSW) 15:15:22 145.827
BEESAT 30 Sep 15:18:23 15:22:40 31° 95° (E) 15:26:54 436.000
HORYU 2 30 Sep 15:18:46 15:20:17 12° 47° (NE) 15:21:49 437.375
SPROUT 30 Sep 15:21:12 15:24:28 22° 302° (WNW) 15:27:43 437.525
50 SAT 30 Sep 15:23:44 15:24:46 11° 308° (NW) 15:25:48 437.505
GONETS M04 30 Sep 15:25:30 15:25:40 10° 7° (N) 15:25:50
AUBIESAT-1 30 Sep 15:34:39 15:37:08 20° 307° (NW) 15:39:36 437.475
